TimeCST,TemperatureF,Dew PointF,Humidity,Sea Level PressureIn,VisibilityMPH,Wind Direction,Wind SpeedMPH,Gust SpeedMPH,PrecipitationIn,Events,Conditions,WindDirDegrees,DateUTC
12:51 AM,46.0,14.0,28,30.12,10.0,SSW,5.8,-,N/A,,Clear,210,2013-03-07 06:51:00
1:51 AM,46.9,14.0,27,30.10,10.0,South,5.8,-,N/A,,Clear,180,2013-03-07 07:51:00
2:51 AM,46.9,15.1,28,30.08,10.0,South,3.5,-,N/A,,Clear,170,2013-03-07 08:51:00
3:51 AM,46.9,16.0,29,30.07,10.0,SSW,5.8,-,N/A,,Clear,200,2013-03-07 09:51:00
4:51 AM,46.0,15.1,29,30.07,10.0,South,3.5,-,N/A,,Clear,180,2013-03-07 10:51:00
5:51 AM,45.0,18.0,34,30.09,10.0,South,5.8,-,N/A,,Clear,180,2013-03-07 11:51:00
6:51 AM,44.1,19.9,38,30.11,10.0,South,3.5,-,N/A,,Clear,170,2013-03-07 12:51:00
8:51 AM,50.0,30.9,48,30.13,10.0,South,11.5,-,N/A,,Clear,180,2013-03-07 14:51:00
9:51 AM,55.9,37.0,49,30.13,10.0,South,15.0,-,N/A,,Clear,180,2013-03-07 15:51:00
10:51 AM,63.0,39.0,41,30.11,10.0,South,17.3,23.0,N/A,,Clear,170,2013-03-07 16:51:00
11:51 AM,68.0,39.0,35,30.09,10.0,South,16.1,25.3,N/A,,Clear,180,2013-03-07 17:51:00
12:51 PM,70.0,37.0,30,30.06,10.0,South,15.0,26.5,N/A,,Clear,180,2013-03-07 18:51:00
1:51 PM,71.1,37.9,30,30.03,10.0,South,18.4,-,N/A,,Clear,180,2013-03-07 19:51:00
2:51 PM,73.9,37.9,27,30.00,10.0,South,18.4,25.3,N/A,,Clear,190,2013-03-07 20:51:00
3:51 PM,73.0,37.0,27,29.99,10.0,South,18.4,25.3,N/A,,Clear,180,2013-03-07 21:51:00
4:51 PM,72.0,37.9,29,29.99,10.0,South,18.4,-,N/A,,Clear,180,2013-03-07 22:51:00
5:51 PM,69.1,39.9,35,30.00,10.0,South,15.0,23.0,N/A,,Clear,180,2013-03-07 23:51:00
6:51 PM,66.9,41.0,39,30.00,10.0,SSE,12.7,-,N/A,,Clear,150,2013-03-08 00:51:00
7:51 PM,64.9,43.0,45,30.02,10.0,SE,11.5,-,N/A,,Clear,140,2013-03-08 01:51:00
8:51 PM,64.0,46.9,54,30.03,10.0,South,8.1,-,N/A,,Clear,170,2013-03-08 02:51:00
9:51 PM,61.0,48.0,62,30.02,10.0,South,9.2,-,N/A,,Clear,170,2013-03-08 03:51:00
10:51 PM,57.0,46.9,69,30.01,10.0,SE,6.9,-,N/A,,Clear,130,2013-03-08 04:51:00
11:51 PM,55.0,46.0,72,30.00,10.0,ESE,5.8,-,N/A,,Clear,120,2013-03-08 05:51:00